1511866800.3,35423,10.06,72798.8,-1.11,-27.39,-26.55,0,*59
1511866801.51,35424,10.06,72804.0,-1.11,-27.89,-27.07,0,*53
1511866802.78,35425,10.06,72804.0,-1.11,-28.25,-27.39,0,*56
1511866804.03,35426,10.06,72800.8,-1.13,-27.83,-27.13,0,*5C
1511866805.24,35427,10.06,72802.8,-1.11,-27.55,-26.87,0,*58
1511866806.45,35428,10.06,72798.5,-1.11,-27.67,-27.07,0,*5F
1511866807.66,35429,10.06,72798.8,-1.07,-27.89,-27.03,0,*5D
1511866808.9,35430,10.06,72800.8,-1.13,-27.89,-27.13,0,*51
1511866810.13,35431,10.06,72800.8,-1.11,-27.55,-26.93,0,*5A
1511866811.36,35432,10.06,72800.3,-1.11,-27.55,-26.93,0,*59
1511866812.59,35433,10.06,72802.3,-1.11,-27.39,-26.49,0,*55
1511866813.83,35434,10.06,72800.3,-1.11,-27.67,-26.93,0,*5E
1511866815.04,35435,10.06,72802.5,-1.11,-27.55,-26.87,0,*5B
1511866816.25,35436,10.06,72800.3,-1.11,-27.71,-27.03,0,*53
1511866817.48,35437,10.06,72802.5,-1.11,-27.71,-26.93,0,*5A
1511866818.69,35438,10.06,72802.0,-1.11,-27.89,-27.03,0,*5A
1511866819.9,35439,10.06,72798.0,-1.11,-27.71,-27.03,0,*5C
1511866821.13,35440,10.06,72800.0,-1.11,-27.71,-26.71,0,*56
1511866822.39,35441,10.06,72800.8,-1.11,-28.05,-27.19,0,*54
1511866823.61,35442,10.06,72798.8,-1.11,-27.67,-26.87,0,*5A
1511866824.84,35443,10.06,72796.5,-1.11,-27.51,-26.55,0,*51
1511866826.05,35444,10.06,72798.0,-1.07,-27.51,-26.65,0,*52
1511866827.28,35445,10.06,72796.3,-1.07,-27.51,-26.71,0,*56
1511866828.52,35446,10.06,72800.5,-1.07,-27.51,-26.71,0,*55
1511866829.75,35447,10.06,72794.8,-1.07,-27.71,-26.93,0,*5A
1511866831.0,35448,10.06,72796.0,-1.07,-28.05,-27.03,0,*51
1511866832.23,35449,10.06,72796.3,-1.11,-28.05,-27.07,0,*53
1511866833.5,35450,10.06,72798.5,-1.11,-28.21,-27.23,0,*5B
1511866834.76,35451,10.06,72802.0,-1.13,-28.09,-27.07,0,*54
1511866836.02,35452,10.06,72798.3,-1.11,-28.21,-27.35,0,*5E
1511866837.28,35453,10.06,72800.0,-1.13,-28.43,-27.71,0,*59
1511866838.51,35454,10.06,72800.8,-1.11,-28.43,-27.71,0,*5C
1511866839.75,35455,10.06,72798.3,-1.11,-28.37,-27.39,0,*52
1511866840.99,35456,10.06,72802.3,-1.11,-27.93,-27.19,0,*52
1511866842.27,35457,10.06,72802.0,-1.13,-27.83,-26.97,0,*57
1511866843.53,35458,10.06,72806.5,-1.13,-27.71,-26.93,0,*51
1511866844.79,35459,10.06,72802.8,-1.13,-28.31,-27.39,0,*5A
1511866846.02,35460,10.06,72800.0,-1.15,-27.99,-27.13,0,*53
1511866847.29,35461,10.06,72802.5,-1.15,-28.09,-27.23,0,*57
1511866848.49,35462,10.06,72798.0,-1.17,-28.15,-27.29,0,*51
1511866849.7,35463,10.06,72798.0,-1.15,-27.93,-27.07,0,*5F
1511866850.93,35464,10.06,72792.5,-1.17,-27.89,-27.23,0,*57
1511866852.16,35465,10.06,72794.3,-1.17,-28.05,-27.13,0,*5E
1511866853.39,35466,10.06,72800.8,-1.15,-28.31,-27.45,0,*5B
1511866854.62,35467,10.06,72804.3,-1.17,-28.53,-27.61,0,*5A
1511866855.88,35468,10.06,72800.5,-1.15,-28.43,-27.45,0,*50
1511866857.11,35469,10.06,72798.5,-1.17,-28.85,-27.99,0,*58
1511866858.36,35470,10.06,72802.5,-1.17,-28.05,-27.19,0,*50
1511866859.59,35471,10.06,72802.8,-1.17,-27.77,-26.81,0,*5B
1511866860.83,35472,10.06,72802.0,-1.17,-27.61,-26.61,0,*51
1511866862.03,35473,10.06,72800.5,-1.17,-27.89,-27.03,0,*53
1511866863.28,35474,10.06,72802.3,-1.19,-27.77,-26.77,0,*59
1511866864.54,35475,10.06,72802.3,-1.19,-27.61,-26.49,0,*52
1511866865.77,35476,10.06,72802.3,-1.17,-27.45,-26.49,0,*59
1511866866.97,35477,10.06,72804.0,-1.17,-27.51,-26.49,0,*5D
1511866868.23,35478,10.06,72800.8,-1.15,-27.83,-26.97,0,*5C
1511866869.45,35479,10.06,72806.3,-1.17,-28.37,-27.45,0,*51
1511866870.67,35480,10.06,72802.8,-1.17,-28.47,-27.51,0,*55
1511866871.9,35481,10.06,72800.0,-1.17,-28.31,-27.35,0,*57
1511866873.16,35482,10.06,72800.5,-1.19,-28.05,-27.03,0,*58
1511866874.39,35483,10.06,72802.5,-1.21,-27.67,-26.55,0,*5B
1511866875.65,35484,10.06,72800.3,-1.19,-27.29,-26.29,0,*56
1511866876.88,35485,10.06,72800.3,-1.17,-27.03,-25.97,0,*57
1511866878.13,35486,10.06,72802.5,-1.17,-27.19,-26.17,0,*54
1511866879.38,35487,10.06,72802.8,-1.17,-27.45,-26.29,0,*51
1511866880.63,35488,10.06,72800.5,-1.17,-27.19,-26.17,0,*5A
1511866881.85,35489,10.06,72798.0,-1.17,-27.13,-26.13,0,*55
1511866883.08,35490,10.06,72800.5,-1.17,-27.13,-26.13,0,*5D
1511866884.31,35491,10.06,72804.5,-1.17,-27.45,-26.45,0,*5C
1511866885.52,35492,10.06,72806.0,-1.15,-27.55,-26.39,0,*57
1511866886.78,35493,10.06,72800.3,-1.17,-27.45,-26.33,0,*5F
1511866888.02,35494,10.06,72802.8,-1.15,-27.45,-26.39,0,*50
1511866889.26,35495,10.06,72798.3,-1.15,-27.71,-26.71,0,*5A
1511866890.49,35496,10.06,72800.0,-1.15,-27.71,-26.71,0,*59
1511866891.7,35497,10.06,72802.3,-1.15,-27.71,-26.61,0,*59
1511866892.94,35498,10.06,72798.5,-1.15,-28.47,-27.29,0,*51
1511866894.16,35499,10.06,72796.5,-1.17,-28.47,-27.51,0,*5D
1511866895.39,35500,10.06,72796.8,-1.17,-27.99,-27.03,0,*57
1511866896.62,35501,10.06,72796.3,-1.17,-27.99,-27.13,0,*57
1511866897.85,35502,10.06,72798.3,-1.17,-28.37,-27.35,0,*5B
1511866899.08,35503,10.06,72800.3,-1.19,-28.31,-27.29,0,*5F
1511866900.31,35504,10.06,72800.8,-1.21,-28.85,-27.83,0,*5C
1511866901.54,35505,10.06,72800.5,-1.21,-28.59,-27.71,0,*51
1511866902.8,35506,10.06,72796.3,-1.21,-28.43,-27.39,0,*55
1511866904.05,35507,10.06,72796.5,-1.21,-28.59,-27.83,0,*5E
1511866905.34,35508,10.06,72800.8,-1.23,-28.91,-27.99,0,*5C
1511866906.6,35509,10.06,72800.3,-1.25,-28.63,-27.61,0,*51
1511866907.8,35510,10.06,72794.3,-1.25,-28.97,-27.89,0,*54
1511866909.03,35511,10.06,72796.5,-1.25,-28.47,-27.29,0,*52
1511866910.25,35512,10.06,72800.5,-1.25,-28.79,-27.93,0,*5D
1511866911.51,35513,10.06,72796.3,-1.27,-28.97,-28.05,0,*5E
1511866912.77,35514,10.06,72800.5,-1.29,-29.13,-28.21,0,*5C
1511866914.01,35515,10.06,72796.0,-1.27,-28.69,-27.67,0,*52
1511866915.24,35516,10.06,72798.5,-1.29,-28.85,-27.83,0,*57
1511866916.45,35517,10.06,72794.0,-1.29,-28.85,-27.93,0,*57
1511866917.68,35518,10.06,72796.5,-1.29,-28.63,-27.51,0,*5E
1511866918.91,35519,10.06,72794.5,-1.31,-28.53,-27.51,0,*55
1511866920.18,35520,10.06,72796.0,-1.35,-28.85,-27.99,0,*54
1511866921.43,35521,10.06,72796.0,-1.35,-28.59,-27.51,0,*50
1511866922.69,35522,10.06,72794.8,-1.31,-28.53,-27.39,0,*53
1511866923.95,35523,10.06,72796.0,-1.35,-28.59,-27.55,0,*56
1511866925.21,35524,10.06,72796.0,-1.35,-28.53,-27.39,0,*51
1511866926.48,35525,10.06,72796.3,-1.39,-28.47,-27.45,0,*52
1511866927.72,35526,10.06,72794.5,-1.39,-28.31,-27.29,0,*5A
1511866929.0,35527,10.06,72796.8,-1.39,-28.63,-27.61,0,*50
1511866930.27,35528,10.06,72796.5,-1.41,-28.25,-27.35,0,*53
1511866931.54,35529,10.06,72798.5,-1.39,-28.47,-27.45,0,*5E
1511866932.81,35530,10.06,72798.8,-1.39,-28.25,-27.29,0,*58
1511866934.04,35531,10.06,72800.8,-1.41,-28.37,-27.35,0,*58
1511866935.3,35532,10.06,72796.0,-1.39,-28.25,-27.07,0,*56
1511866936.55,35533,10.06,72796.3,-1.41,-28.47,-27.45,0,*5A
1511866937.76,35534,10.06,72796.3,-1.41,-28.85,-27.67,0,*53
1511866939.02,35535,10.06,72796.0,-1.43,-28.69,-27.61,0,*54
1511866940.26,35536,10.06,72796.8,-1.43,-28.97,-27.93,0,*5B
1511866941.5,35537,10.06,72798.8,-1.45,-29.01,-27.89,0,*59
1511866942.76,35538,10.06,72798.0,-1.45,-29.17,-28.21,0,*5C
1511866944.01,35539,10.06,72798.5,-1.45,-29.23,-28.21,0,*5A
1511866945.3,35540,10.06,72800.0,-1.47,-28.59,-27.61,0,*51
1511866946.53,35541,10.06,72800.3,-1.49,-29.07,-27.93,0,*59
1511866947.78,35542,10.06,72796.8,-1.49,-28.79,-27.89,0,*59
1511866949.04,35543,10.06,72794.3,-1.49,-29.07,-28.09,0,*57
1511866950.25,35544,10.06,72794.3,-1.51,-28.69,-27.51,0,*52
1511866951.48,35545,10.06,72796.0,-1.51,-28.37,-27.45,0,*5D
1511866952.68,35546,10.06,72798.5,-1.51,-28.15,-27.07,0,*58
1511866953.89,35547,10.06,72796.8,-1.51,-28.15,-27.07,0,*59
1511866955.12,35548,10.06,72800.3,-1.51,-28.15,-26.97,0,*5E
1511866956.38,35549,10.06,72796.8,-1.53,-28.31,-27.23,0,*55
1511866957.59,35550,10.06,72796.3,-1.51,-28.53,-27.51,0,*5E
1511866958.85,35551,10.06,72794.8,-1.53,-28.25,-27.07,0,*5F
1511866960.11,35552,10.06,72796.3,-1.51,-27.99,-26.93,0,*5A
1511866961.34,35553,10.06,72796.5,-1.53,-28.15,-27.07,0,*5E
1511866962.57,35554,10.06,72800.5,-1.53,-28.15,-27.07,0,*59
1511866963.86,35555,10.06,72802.3,-1.53,-27.99,-26.93,0,*5F
1511866965.14,35556,10.06,72798.5,-1.53,-27.99,-26.97,0,*58
1511866966.4,35557,10.06,72798.8,-1.53,-28.25,-27.07,0,*59
1511866967.69,35558,10.06,72798.0,-1.53,-27.99,-26.97,0,*56
1511866968.93,35559,10.06,72798.8,-1.51,-28.53,-27.61,0,*54
1511866970.21,35560,10.06,72796.5,-1.53,-28.09,-26.77,0,*55
1511866971.42,35561,10.06,72794.8,-1.51,-27.77,-26.65,0,*53
1511866972.71,35562,10.06,72796.0,-1.53,-27.99,-26.81,0,*58
1511866973.96,35563,10.06,72796.5,-1.53,-27.99,-27.07,0,*56
1511866975.22,35564,10.06,72798.0,-1.53,-28.69,-27.61,0,*51
1511866976.48,35565,10.06,72798.3,-1.55,-28.43,-27.35,0,*5F
1511866977.7,35566,10.06,72798.0,-1.55,-28.37,-27.29,0,*52
1511866978.91,35567,10.06,72796.0,-1.59,-28.31,-27.13,0,*50
1511866980.13,35568,10.06,72794.5,-1.55,-28.37,-27.29,0,*5C
1511866981.37,35569,10.06,72796.0,-1.59,-28.59,-27.51,0,*56
1511866982.61,35570,10.06,72796.5,-1.59,-28.75,-27.67,0,*55
1511866983.87,35571,10.06,72798.3,-1.55,-29.01,-27.83,0,*50
1511866985.11,35572,10.06,72798.0,-1.59,-28.75,-27.71,0,*50
1511866986.38,35573,10.06,72802.3,-1.61,-28.21,-27.07,0,*5A
1511866987.64,35574,10.06,72798.8,-1.61,-28.59,-27.55,0,*55
1511866988.9,35575,10.06,72798.0,-1.63,-28.59,-27.61,0,*51
1511866990.15,35576,10.06,72798.5,-1.63,-28.91,-27.89,0,*50
1511866991.39,35577,10.06,72798.8,-1.63,-29.07,-28.05,0,*54
1511866992.65,35578,10.06,72798.5,-1.65,-29.29,-28.15,0,*50
1511866993.91,35579,10.06,72796.5,-1.65,-28.97,-27.83,0,*55
1511866995.15,35580,10.06,72798.8,-1.67,-28.37,-27.19,0,*58
1511866996.43,35581,10.06,72796.0,-1.65,-28.25,-26.93,0,*5B
1511866997.66,35582,10.06,72798.0,-1.65,-28.15,-26.87,0,*5E
1511866998.92,35583,10.06,72796.5,-1.67,-28.59,-27.45,0,*5A
1511867000.13,35584,10.06,72796.8,-1.67,-28.31,-27.13,0,*50
1511867001.39,35585,10.06,72796.8,-1.67,-27.99,-26.81,0,*56
1511867002.62,35586,10.06,72800.0,-1.67,-27.71,-26.55,0,*5A
1511867003.83,35587,10.06,72800.8,-1.67,-27.89,-26.65,0,*5F
1511867005.06,35588,10.06,72802.3,-1.65,-27.77,-26.49,0,*5D
1511867006.3,35589,10.06,72804.8,-1.67,-28.15,-26.81,0,*51
1511867007.54,35590,10.06,72796.5,-1.67,-28.21,-27.13,0,*54
1511867008.77,35591,10.06,72796.0,-1.65,-28.15,-27.07,0,*55
1511867009.98,35592,10.06,72798.3,-1.67,-28.53,-27.51,0,*55
1511867011.22,35593,10.06,72802.5,-1.67,-28.37,-27.19,0,*5A
1511867012.45,35594,10.06,72802.8,-1.69,-28.31,-27.13,0,*5F
1511867013.72,35595,10.06,72802.0,-1.71,-28.05,-26.77,0,*53
1511867015.0,35596,10.06,72796.3,-1.69,-27.83,-26.71,0,*5E
1511867016.26,35597,10.06,72798.0,-1.69,-28.21,-27.03,0,*5C
1511867017.53,35598,10.06,72800.0,-1.69,-28.21,-27.03,0,*53
1511867018.77,35599,10.06,72798.3,-1.71,-28.53,-27.35,0,*5B
1511867020.04,35600,10.06,72796.0,-1.71,-28.59,-27.35,0,*52
1511867021.27,35601,10.06,72798.3,-1.71,-28.37,-27.23,0,*5C
1511867022.53,35602,10.06,72796.0,-1.71,-28.09,-26.93,0,*58
1511867023.8,35603,10.06,72802.0,-1.69,-28.21,-27.13,0,*53
1511867025.03,35604,10.13,72802.8,-1.73,-28.37,-27.07,0,*5D
1511867026.31,35605,10.06,72796.5,-1.73,-28.09,-26.93,0,*5D
1511867027.57,35606,10.06,72800.8,-1.73,-28.09,-26.87,0,*5B
1511867028.8,35607,10.06,72796.8,-1.73,-27.71,-26.49,0,*58
1511867030.08,35608,10.06,72800.5,-1.73,-27.61,-26.55,0,*5B
1511867031.34,35609,10.06,72794.5,-1.73,-28.25,-27.07,0,*53
1511867032.58,35610,10.06,72798.0,-1.73,-28.37,-27.13,0,*5D
1511867033.86,35611,10.06,72798.0,-1.73,-28.59,-27.35,0,*50
1511867035.1,35612,10.06,72796.0,-1.75,-28.37,-27.19,0,*53
1511867036.36,35613,10.06,72798.5,-1.75,-27.99,-26.93,0,*5A
1511867037.62,35614,10.06,72798.0,-1.75,-28.59,-27.45,0,*54
1511867038.87,35615,10.06,72798.0,-1.75,-28.47,-27.39,0,*51
1511867040.11,35616,10.06,72798.5,-1.75,-28.59,-27.55,0,*57
1511867041.38,35617,10.06,72798.8,-1.77,-28.43,-27.29,0,*54
1511867042.66,35618,10.06,72794.0,-1.77,-28.63,-27.45,0,*53
1511867043.89,35619,10.06,72796.3,-1.81,-28.37,-27.19,0,*53
1511867045.12,35620,10.06,72796.0,-1.77,-28.31,-27.13,0,*5C
1511867046.39,35621,10.06,72798.0,-1.77,-28.25,-27.07,0,*5D
1511867047.6,35622,10.06,72796.0,-1.81,-28.69,-27.67,0,*59
1511867048.86,35623,10.06,72796.3,-1.81,-28.05,-26.93,0,*58
1511867050.09,35624,10.06,72800.8,-1.81,-28.37,-27.23,0,*54
1511867051.35,35625,10.06,72798.8,-1.81,-28.59,-27.39,0,*56
1511867052.63,35626,10.06,72798.0,-1.83,-28.09,-26.93,0,*53
1511867053.88,35627,10.06,72796.8,-1.85,-28.09,-26.97,0,*50
1511867055.12,35628,10.06,72800.0,-1.83,-27.93,-26.87,0,*54
1511867056.38,35629,10.06,72796.8,-1.81,-28.59,-27.39,0,*5A
1511867057.63,35630,10.06,72798.3,-1.85,-28.09,-26.97,0,*56
1511867058.92,35631,10.06,72800.5,-1.83,-28.43,-27.23,0,*51
1511867060.2,35632,10.06,72800.3,-1.83,-28.09,-26.93,0,*56
1511867061.43,35633,10.06,72796.0,-1.83,-27.77,-26.65,0,*58
1511867062.66,35634,10.06,72800.5,-1.85,-27.71,-26.71,0,*5A
1511867063.9,35635,10.06,72796.8,-1.83,-27.55,-26.39,0,*57
1511867065.16,35636,10.06,72800.8,-1.83,-27.55,-26.33,0,*5E
1511867066.39,35637,10.06,72800.3,-1.83,-27.55,-26.49,0,*52
1511867067.65,35638,10.06,72798.0,-1.83,-27.35,-26.07,0,*51
1511867068.93,35639,10.06,72802.0,-1.83,-27.35,-26.17,0,*51
1511867070.16,35640,10.13,72800.0,-1.83,-27.07,-25.91,0,*53
1511867071.4,35641,10.06,72802.5,-1.83,-27.55,-26.65,0,*5D
1511867072.65,35642,10.06,72800.3,-1.81,-27.39,-26.17,0,*53
1511867073.88,35643,10.06,72796.8,-1.81,-27.13,-25.97,0,*51
1511867075.11,35644,10.06,72796.8,-1.81,-27.19,-26.03,0,*52
1511867076.38,35645,10.06,72802.0,-1.77,-27.07,-25.97,0,*5B
1511867077.65,35646,10.06,72802.5,-1.77,-27.29,-26.13,0,*5B
1511867078.89,35647,10.06,72802.0,-1.77,-27.07,-25.91,0,*5F
1511867080.15,35648,10.13,72802.3,-1.75,-27.23,-25.97,0,*52
1511867081.42,35649,10.13,72802.3,-1.77,-27.23,-26.07,0,*5B
1511867082.71,35650,10.13,72800.0,-1.77,-26.97,-25.81,0,*50
1511867084.0,35651,10.06,72800.0,-1.77,-26.93,-25.81,0,*55
1511867085.24,35652,10.06,72798.3,-1.77,-27.07,-25.91,0,*5B
1511867086.53,35653,10.06,72798.5,-1.77,-26.93,-25.81,0,*57
1511867087.8,35654,10.06,72798.0,-1.75,-26.93,-25.81,0,*52
1511867089.03,35655,10.06,72794.8,-1.73,-27.07,-25.91,0,*58
1511867090.29,35656,10.06,72796.0,-1.75,-26.97,-25.81,0,*54
1511867091.55,35657,10.06,72798.0,-1.73,-26.93,-25.87,0,*51
1511867092.81,35658,10.06,72798.3,-1.73,-26.77,-25.87,0,*54
1511867094.02,35659,10.06,72796.5,-1.75,-27.03,-25.91,0,*56
1511867095.26,35660,10.06,72798.0,-1.73,-27.07,-26.03,0,*56
1511867096.52,35661,10.06,72796.0,-1.71,-26.55,-25.45,0,*52
1511867097.78,35662,10.06,72796.8,-1.73,-26.55,-25.39,0,*58
1511867099.04,35663,10.06,72796.3,-1.71,-26.55,-25.55,0,*51
1511867100.3,35664,10.06,72800.0,-1.69,-26.55,-25.49,0,*52
1511867101.56,35665,10.06,72802.5,-1.71,-26.55,-25.45,0,*56
1511867102.82,35666,10.06,72798.5,-1.71,-26.55,-25.45,0,*55
1511867104.08,35667,10.06,72800.0,-1.69,-26.55,-25.49,0,*51
1511867105.32,35668,10.06,72800.0,-1.71,-27.39,-26.39,0,*58
1511867106.61,35669,10.06,72802.5,-1.69,-27.35,-26.33,0,*56
1511867107.87,35670,10.06,72798.8,-1.69,-27.03,-25.97,0,*56
1511867109.13,35671,10.06,72794.3,-1.67,-27.35,-26.33,0,*51
1511867110.39,35672,10.06,72796.0,-1.71,-27.23,-26.17,0,*54
1511867111.64,35673,10.06,72798.0,-1.69,-27.35,-26.45,0,*5C
1511867112.91,35674,10.06,72798.8,-1.69,-27.29,-26.29,0,*5C
1511867114.15,35675,10.06,72798.0,-1.69,-27.71,-26.65,0,*58
1511867115.36,35676,10.06,72794.3,-1.71,-28.15,-27.03,0,*5E
1511867116.59,35677,10.06,72796.5,-1.71,-27.55,-26.55,0,*56
1511867117.83,35678,10.06,72796.5,-1.71,-27.19,-26.03,0,*52
1511867119.06,35679,10.06,72796.8,-1.71,-27.19,-26.07,0,*57
1511867120.28,35680,10.13,72800.0,-1.71,-27.07,-26.03,0,*5A
1511867121.51,35681,10.06,72798.0,-1.71,-27.89,-26.77,0,*5E
1511867122.75,35682,10.13,72798.5,-1.71,-27.77,-26.71,0,*5A
1511867123.96,35683,10.06,72792.0,-1.71,-27.55,-26.61,0,*5A
1511867125.19,35684,10.06,72794.8,-1.75,-27.77,-26.81,0,*57
1511867126.43,35685,10.13,72798.3,-1.75,-27.45,-26.39,0,*54
1511867127.68,35686,10.06,72796.8,-1.73,-27.07,-26.03,0,*5E
1511867128.93,35687,10.06,72794.8,-1.73,-27.19,-26.07,0,*54
1511867130.18,35688,10.06,72796.0,-1.73,-27.35,-26.23,0,*53
1511867131.42,35689,10.06,72796.3,-1.75,-27.29,-26.29,0,*53
1511867132.7,35690,10.06,72798.8,-1.73,-27.35,-26.33,0,*5B
1511867133.98,35691,10.06,72798.8,-1.73,-27.23,-26.17,0,*5B
1511867135.24,35692,10.13,72798.3,-1.73,-27.39,-26.39,0,*5F
1511867136.5,35693,10.06,72798.8,-1.73,-27.39,-26.39,0,*5E
1511867137.76,35694,10.06,72794.8,-1.73,-27.39,-26.49,0,*5E
1511867139.0,35695,10.13,72798.3,-1.75,-27.07,-25.97,0,*54
1511867140.24,35696,10.13,72798.0,-1.75,-26.65,-25.81,0,*55
1511867141.48,35697,10.06,72798.8,-1.75,-26.97,-25.91,0,*58
1511867142.75,35698,10.06,72796.0,-1.73,-26.93,-26.03,0,*5D
1511867144.01,35699,10.06,72794.5,-1.73,-26.61,-25.75,0,*53
1511867145.3,35700,10.06,72794.5,-1.73,-26.77,-25.75,0,*55
1511867146.54,35701,10.06,72796.3,-1.73,-27.07,-26.07,0,*54
1511867147.76,35702,10.13,72798.5,-1.73,-26.87,-25.87,0,*55
1511867149.0,35703,10.06,72796.8,-1.75,-27.13,-25.97,0,*5F
1511867150.26,35704,10.06,72794.5,-1.73,-26.93,-25.87,0,*56
1511867151.49,35705,10.06,72798.0,-1.73,-27.03,-26.07,0,*54
1511867152.74,35706,10.06,72794.8,-1.73,-27.35,-26.23,0,*54
1511867154.03,35707,10.06,72794.5,-1.73,-27.35,-26.33,0,*54
1511867155.31,35708,10.06,72798.0,-1.73,-27.23,-26.17,0,*5A
1511867156.54,35709,10.13,72796.5,-1.73,-27.51,-26.61,0,*5F
1511867157.8,35710,10.06,72794.5,-1.75,-27.45,-26.55,0,*53
1511867159.05,35711,10.13,72796.0,-1.73,-27.51,-26.55,0,*51
1511867160.29,35712,10.06,72796.0,-1.73,-27.07,-26.07,0,*56
1511867161.53,35713,10.06,72798.0,-1.75,-27.39,-26.39,0,*51
1511867162.77,35714,10.13,72796.3,-1.75,-27.67,-26.77,0,*57
1511867164.0,35715,10.06,72798.5,-1.75,-27.77,-26.93,0,*5D
1511867165.24,35716,10.13,72800.5,-1.75,-27.77,-26.81,0,*5D
1511867166.48,35717,10.13,72798.0,-1.75,-27.45,-26.61,0,*53
1511867167.72,35718,10.13,72796.3,-1.75,-27.61,-26.65,0,*5E
1511867168.96,35719,10.13,72798.3,-1.75,-27.93,-26.93,0,*5B
1511867170.19,35720,10.06,72792.8,-1.77,-27.67,-26.65,0,*51
1511867171.48,35721,10.13,72796.8,-1.77,-27.39,-26.55,0,*58
1511867172.71,35722,10.13,72794.8,-1.81,-27.23,-26.23,0,*58
1511867173.97,35723,10.06,72792.8,-1.77,-27.39,-26.39,0,*50
1511867175.23,35724,10.13,72796.5,-1.77,-27.23,-26.23,0,*57
1511867176.5,35725,10.13,72798.8,-1.77,-27.07,-25.97,0,*5C
1511867177.72,35726,10.13,72800.0,-1.81,-27.07,-26.03,0,*58
1511867179.01,35727,10.13,72798.8,-1.77,-26.93,-25.97,0,*52
1511867180.28,35728,10.06,72798.8,-1.77,-27.07,-25.97,0,*51
1511867181.55,35729,10.06,72796.3,-1.77,-26.93,-26.07,0,*56
1511867182.83,35730,10.13,72796.5,-1.77,-27.39,-26.55,0,*58
1511867184.09,35731,10.06,72794.8,-1.77,-27.39,-26.45,0,*58
1511867185.3,35732,10.13,72798.0,-1.81,-27.03,-26.07,0,*5D
1511867186.54,35733,10.06,72798.8,-1.77,-26.45,-25.49,0,*5F
1511867187.79,35734,10.06,72796.5,-1.77,-26.45,-25.61,0,*52
1511867189.07,35735,10.13,72796.0,-1.77,-27.23,-26.29,0,*5D
1511867190.34,35736,10.13,72798.5,-1.77,-26.93,-25.91,0,*54
1511867191.6,35737,10.06,72796.3,-1.77,-26.39,-25.29,0,*56
1511867192.82,35738,10.06,72796.0,-1.75,-26.07,-25.09,0,*54
1511867194.07,35739,10.06,72794.0,-1.73,-25.91,-24.87,0,*58
1511867195.34,35740,10.06,72798.0,-1.71,-25.71,-24.71,0,*53
1511867196.6,35741,10.13,72802.0,-1.73,-25.55,-24.61,0,*57
1511867197.84,35742,10.13,72798.0,-1.71,-25.71,-24.93,0,*5D
1511867199.11,35743,10.06,72796.8,-1.69,-26.33,-25.39,0,*51
1511867200.37,35744,10.13,72798.8,-1.69,-26.29,-25.19,0,*5F
1511867201.63,35745,10.13,72798.0,-1.69,-26.29,-25.19,0,*5E
1511867202.89,35746,10.13,72800.5,-1.69,-26.03,-25.03,0,*5E
1511867204.14,35747,10.06,72796.5,-1.67,-26.33,-25.35,0,*57
1511867205.38,35748,10.13,72800.8,-1.67,-25.97,-25.13,0,*51
1511867206.62,35749,10.06,72796.0,-1.67,-26.03,-25.03,0,*5F
1511867207.89,35750,10.06,72796.0,-1.65,-25.97,-25.09,0,*51
1511867209.12,35751,10.13,72798.3,-1.65,-26.07,-25.13,0,*51
1511867210.33,35752,10.13,72800.3,-1.63,-25.91,-24.93,0,*51
1511867211.59,35753,10.13,72802.0,-1.65,-26.13,-25.13,0,*56
1511867212.84,35754,10.13,72796.3,-1.63,-26.03,-25.03,0,*57
1511867214.08,35755,10.13,72802.8,-1.61,-26.03,-24.93,0,*5C
1511867215.31,35756,10.06,72796.8,-1.63,-25.91,-24.87,0,*50
1511867216.52,35757,10.13,72800.0,-1.63,-25.61,-24.77,0,*51
1511867217.82,35758,10.06,72796.5,-1.61,-25.55,-24.71,0,*5D
1511867219.06,35759,10.13,72798.5,-1.61,-25.87,-24.77,0,*55
1511867220.32,35760,10.13,72798.3,-1.59,-25.71,-24.83,0,*56
1511867221.59,35761,10.13,72800.0,-1.59,-25.71,-24.83,0,*57
1511867222.83,35762,10.06,72798.0,-1.59,-25.65,-24.83,0,*51
1511867224.03,35763,10.13,72798.0,-1.51,-25.91,-24.93,0,*52
1511867225.25,35764,10.13,72800.5,-1.55,-26.39,-25.49,0,*56
1511867226.48,35765,10.13,72798.8,-1.55,-26.13,-25.13,0,*50
1511867227.74,35766,10.06,72798.0,-1.55,-25.81,-24.83,0,*53
1511867229.0,35767,10.13,72796.3,-1.53,-25.75,-24.77,0,*54
1511867230.26,35768,10.13,72802.0,-1.53,-25.81,-24.93,0,*5A
1511867231.53,35769,10.13,72796.8,-1.53,-25.97,-25.09,0,*5E
1511867232.76,35770,10.13,72796.0,-1.51,-26.13,-25.19,0,*5A
1511867233.96,35771,10.06,72794.5,-1.51,-25.65,-24.93,0,*5A
1511867235.19,35772,10.13,72796.8,-1.51,-25.61,-24.67,0,*56
1511867236.39,35773,10.13,72794.8,-1.51,-25.35,-24.47,0,*54
1511867237.62,35774,10.13,72798.0,-1.49,-25.39,-24.47,0,*56
1511867238.9,35775,10.13,72794.8,-1.49,-25.75,-24.87,0,*53
1511867240.14,35776,10.06,72794.3,-1.47,-25.39,-24.47,0,*5A
1511867241.37,35777,10.06,72792.5,-1.47,-25.23,-24.31,0,*51
1511867242.63,35778,10.13,72798.5,-1.47,-25.23,-24.25,0,*5B
1511867243.86,35779,10.13,72794.5,-1.43,-25.49,-24.61,0,*52
1511867245.12,35780,10.13,72794.5,-1.43,-25.81,-24.93,0,*5D
1511867246.38,35781,10.06,72790.3,-1.43,-25.61,-24.67,0,*59
1511867247.58,35782,10.06,72794.0,-1.41,-25.65,-24.77,0,*5D
1511867248.81,35783,10.13,72796.3,-1.41,-25.75,-24.93,0,*57
1511867250.07,35784,10.13,72796.3,-1.41,-25.75,-24.83,0,*51
1511867251.32,35785,10.13,72798.3,-1.41,-25.81,-24.83,0,*5B
1511867252.58,35786,10.13,72798.8,-1.39,-25.71,-24.77,0,*53
1511867253.82,35787,10.13,72796.0,-1.41,-25.75,-24.77,0,*59
1511867255.05,35788,10.13,72798.5,-1.41,-25.75,-24.97,0,*58
1511867256.28,35789,10.13,72796.3,-1.39,-26.07,-25.13,0,*5D
1511867257.54,35790,10.13,72792.3,-1.39,-25.75,-24.93,0,*5A
1511867258.8,35791,10.13,72794.5,-1.39,-25.75,-24.93,0,*5B
1511867260.03,35792,10.13,72796.5,-1.39,-25.39,-24.61,0,*5D
1511867261.26,35793,10.13,72796.5,-1.39,-25.39,-24.47,0,*58
1511867262.55,35794,10.13,72792.8,-1.35,-25.55,-24.83,0,*51
1511867263.8,35795,10.13,72796.3,-1.35,-25.39,-24.41,0,*54
1511867265.09,35796,10.13,72796.0,-1.31,-25.55,-24.71,0,*5A
1511867266.34,35797,10.13,72796.8,-1.31,-25.39,-24.71,0,*51
1511867267.55,35798,10.13,72796.3,-1.29,-25.35,-24.61,0,*5A
1511867268.75,35799,10.13,72798.8,-1.29,-25.19,-24.47,0,*51
1511867269.97,35800,10.13,72796.0,-1.27,-25.19,-24.35,0,*55
1511867271.22,35801,10.13,72794.3,-1.27,-25.49,-24.67,0,*56
1511867272.48,35802,10.13,72794.0,-1.27,-25.91,-25.03,0,*53
1511867273.76,35803,10.13,72796.3,-1.27,-25.75,-25.03,0,*58
1511867275.04,35804,10.13,72792.8,-1.27,-25.75,-25.03,0,*5F
1511867276.33,35805,10.13,72792.8,-1.27,-25.75,-24.87,0,*53
1511867277.56,35806,10.13,72796.5,-1.27,-25.49,-24.77,0,*50
1511867278.82,35807,10.13,72794.0,-1.27,-25.65,-24.83,0,*54
1511867280.04,35808,10.13,72796.5,-1.25,-25.45,-24.47,0,*53
1511867281.26,35809,10.13,72796.5,-1.25,-25.61,-24.83,0,*5C
1511867282.49,35810,10.13,72798.8,-1.25,-25.75,-24.93,0,*50
1511867283.69,35811,10.13,72798.8,-1.25,-25.87,-24.97,0,*58
1511867284.95,35812,10.13,72794.5,-1.23,-25.75,-25.09,0,*56
1511867286.24,35813,10.13,72796.5,-1.23,-25.71,-24.83,0,*50
1511867287.44,35814,10.13,72794.8,-1.25,-25.91,-24.97,0,*5A
1511867288.67,35815,10.13,72794.8,-1.23,-26.23,-25.39,0,*52
1511867289.95,35816,10.13,72794.8,-1.23,-26.13,-25.29,0,*53
1511867291.21,35817,10.13,72798.3,-1.23,-25.75,-25.09,0,*53
1511867292.44,35818,10.13,72794.0,-1.23,-25.87,-25.23,0,*59
1511867293.67,35819,10.13,72796.5,-1.23,-25.61,-24.93,0,*5A
1511867294.93,35820,10.13,72794.3,-1.21,-25.81,-25.03,0,*54
1511867296.13,35821,10.06,72794.5,-1.21,-26.23,-25.49,0,*50
1511867297.38,35822,10.06,72794.0,-1.21,-26.33,-25.49,0,*52